Location: Indian Springs
(36.5700°N, 115.6700°W)
Time: 06:04:41
(UTC-07:00)

Amateur Radio Satellites - All Passes

Search period start: 26 April 2015 05:34
Search period end: 27 April 2015 05:34
Location: Indian Springs, 36.5700°N, 115.6700°W

Satellite Date Start Highest point End Downlink Frequencies (MHz)
Time Altitude Azimuth
GONETS M04 26 Apr 05:47:09 05:53:21 21° 278° (W) 05:59:04
AO-7 26 Apr 05:54:54 06:02:47 47° 294° (WNW) 06:10:34 29.400- 29.500
AUBIESAT-1 26 Apr 06:05:34 06:10:20 86° 71° (ENE) 06:15:10 437.475
Cosmos 2499 26 Apr 06:09:13 06:16:58 79° 265° (W) 06:24:09 435.465 / 435.565
JAS-2 26 Apr 06:12:15 06:16:51 21° 297° (WNW) 06:20:54 435.910
CUBESAT XI-V 26 Apr 06:12:45 06:17:20 64° 76° (ENE) 06:21:55 437.345
CUTE-I 26 Apr 06:17:49 06:22:18 28° 95° (E) 06:26:53 437.470
CUSAT 1 26 Apr 06:21:27 06:25:14 13° 276° (W) 06:28:27 437.405
Cubesat XI-IV 26 Apr 06:27:22 06:32:12 35° 97° (E) 06:37:04 437.490
PRISM 26 Apr 06:31:07 06:35:14 64° 75° (ENE) 06:39:21 437.425
STRAND 1 26 Apr 06:32:30 06:37:25 51° 73° (ENE) 06:42:22 437.568
M-CUBED/EXP-1 PRIME 26 Apr 06:59:33 07:03:24 23° 262° (W) 07:07:12 437.505
O/OREOS (USA 219) 26 Apr 07:24:59 07:28:26 22° 60° (ENE) 07:31:56 437.305
BRITE-PL 26 Apr 07:46:37 07:49:44 16° 91° (E) 07:53:13 437.365/2234.400
PCSat 26 Apr 07:52:45 07:58:03 59° 113° (ESE) 08:03:24 145.827
CUBESAT XI-V 26 Apr 07:54:19 07:55:17 10° 272° (W) 07:55:55 437.345
CUTE-I 26 Apr 07:57:41 08:02:24 32° 290° (WNW) 08:07:02 437.470
Cosmos 2499 26 Apr 08:07:44 08:08:51 10° 282° (WNW) 08:09:16 435.465 / 435.565
Cubesat XI-IV 26 Apr 08:07:47 08:12:11 26° 292° (WNW) 08:16:27 437.490
STRAND 1 26 Apr 08:13:42 08:16:59 16° 269° (W) 08:20:00 437.568
CANX-2 26 Apr 08:16:58 08:18:31 12° 90° (E) 08:20:20 2200.000
CUTE 1.7 + AOD 2 26 Apr 08:25:31 08:27:38 14° 91° (E) 08:29:58 437.475
CINEMA 3 26 Apr 08:45:01 08:47:02 13° 89° (E) 08:49:23 145.822/145.860
HO-68 26 Apr 08:52:24 08:59:02 40° 98° (E) 09:05:41 435.675
O/OREOS (USA 219) 26 Apr 09:03:57 09:07:55 31° 256° (WSW) 09:11:48 437.305
GOMX 1 26 Apr 09:07:21 09:12:33 69° 101° (E) 09:17:58 467.674
COMPASS 1 26 Apr 09:14:33 09:18:23 34° 97° (E) 09:22:13 437.405
ANTELSAT 26 Apr 09:21:16 09:23:21 13° 66° (ENE) 09:25:42 437.575/2403.000
BRITE-PL 26 Apr 09:23:28 09:28:32 56° 285° (WNW) 09:33:55 437.365/2234.400
Cosmos 2491 26 Apr 09:25:15 09:33:38 47° 76° (ENE) 09:42:05 435.465 / 435.565
DELFI C3 26 Apr 09:28:53 09:30:43 13° 91° (E) 09:32:46 145.870
Oscar 11 26 Apr 09:34:20 09:37:44 23° 94° (E) 09:41:13 145.826/435.025
ZACube-1 26 Apr 09:37:33 09:39:52 14° 90° (E) 09:42:26 437.345
PCSat 26 Apr 09:38:01 09:41:56 19° 311° (NW) 09:45:43 145.827
DOVE 4 26 Apr 09:40:34 09:45:46 84° 281° (W) 09:51:04 437.250
SEEDS 26 Apr 09:40:53 09:45:09 87° 283° (WNW) 09:49:21 437.485
QB50P2 26 Apr 09:47:12 09:48:11 11° 66° (ENE) 09:49:25 145.880/145.840
CANX-2 26 Apr 09:50:40 09:54:49 48° 286° (WNW) 09:58:54 2200.000
AAUSAT CUBESAT 2 26 Apr 09:56:17 10:00:29 83° 283° (WNW) 10:04:38 437.432
SO-50 26 Apr 09:59:28 10:00:08 10° 108° (ESE) 10:01:07 436.795
CUTE 1.7 + AOD 2 26 Apr 09:59:46 10:03:49 42° 286° (WNW) 10:07:49 437.475
NANOSAT C BR1 26 Apr 10:03:08 10:05:42 16° 68° (ENE) 10:08:26 145.865
POPSAT HIP 1 26 Apr 10:06:25 10:09:12 18° 69° (ENE) 10:12:09 437.405
TIGRISAT 26 Apr 10:08:43 10:12:56 42° 73° (ENE) 10:17:19 435.000
DX 1 26 Apr 10:09:35 10:12:27 18° 93° (E) 10:15:28 434.975-435.025
UNISAT 6 26 Apr 10:13:15 10:17:35 49° 74° (ENE) 10:22:04 437.425
CUBEBUG 2 26 Apr 10:14:06 10:18:50 59° 100° (E) 10:23:31 437.445
CINEMA 3 26 Apr 10:19:44 10:24:42 64° 285° (WNW) 10:29:41 145.822/145.860
BUGSAT 1 26 Apr 10:26:57 10:29:51 20° 70° (ENE) 10:32:52 437.445
YUBILEINY 26 Apr 10:26:59 10:35:27 55° 91° (E) 10:43:59 435.215
POLYITAN 1 26 Apr 10:35:16 10:39:11 39° 73° (ENE) 10:43:11 437.675
DUCHIFAT 1 26 Apr 10:35:24 10:39:15 37° 73° (ENE) 10:43:11 145.980
UWE-3 26 Apr 10:38:40 10:43:24 89° 109° (ESE) 10:48:03 435.000/436.395/437.385
HO-68 26 Apr 10:40:14 10:46:42 36° 294° (WNW) 10:53:01 435.675
FUNcube-1 26 Apr 10:46:14 10:50:52 84° 102° (ESE) 10:55:25 145.935
GOMX 1 26 Apr 10:47:23 10:50:14 14° 293° (WNW) 10:52:52 467.674
UKube-1 26 Apr 10:50:34 10:54:47 49° 100° (E) 10:58:59 .
COMPASS 1 26 Apr 10:51:02 10:53:49 17° 291° (WNW) 10:56:28 437.405
QB50P1 26 Apr 10:53:04 10:57:13 65° 76° (ENE) 11:01:25 145.935-145.965
ANTELSAT 26 Apr 10:55:15 10:59:41 55° 261° (W) 11:04:15 437.575/2403.000
ISS 26 Apr 10:59:55 11:02:59 41° 134° (SE) 11:06:04 145.825
HUMSAT D 26 Apr 11:00:56 11:05:13 58° 100° (E) 11:09:27 437.325/437.525
DELFI C3 26 Apr 11:02:19 11:06:06 39° 287° (WNW) 11:09:50 145.870
AIST 2 26 Apr 11:08:34 11:09:08 10° 42° (NE) 11:09:55 435.215
Oscar 11 26 Apr 11:10:13 11:13:54 27° 289° (WNW) 11:17:30 145.826/435.025
ZACube-1 26 Apr 11:12:06 11:16:35 48° 286° (WNW) 11:20:57 437.345
VELOX 1 26 Apr 11:18:46 11:23:05 49° 100° (E) 11:27:24 145.980
QB50P2 26 Apr 11:19:29 11:23:38 58° 260° (W) 11:27:49 145.880/145.840
CUBEBUG 1 26 Apr 11:22:19 11:25:53 25° 95° (E) 11:29:32 437.445
Cosmos 2491 26 Apr 11:22:32 11:30:19 35° 273° (W) 11:37:53 435.465 / 435.565
SO-50 26 Apr 11:35:28 11:40:05 73° 301° (WNW) 11:44:53 436.795
BEESAT 3 26 Apr 11:36:06 11:40:11 67° 58° (ENE) 11:44:11 437.485
AISAT 26 Apr 11:36:52 11:41:21 84° 103° (ESE) 11:45:50 437.250
NANOSAT C BR1 26 Apr 11:37:24 11:41:17 36° 262° (W) 11:45:11 145.865
BEESAT 2 26 Apr 11:38:33 11:42:38 58° 58° (ENE) 11:46:37 435.950
POPSAT HIP 1 26 Apr 11:41:05 11:44:53 33° 263° (W) 11:48:41 437.405
DX 1 26 Apr 11:44:51 11:48:51 35° 288° (WNW) 11:52:48 434.975-435.025
50 SAT 26 Apr 11:45:02 11:49:04 66° 284° (WNW) 11:53:01 437.505
TIGRISAT 26 Apr 11:47:05 11:49:58 16° 269° (W) 11:52:41 435.000
UNISAT 6 26 Apr 11:52:18 11:54:44 14° 270° (W) 11:56:58 437.425
CUBEBUG 2 26 Apr 11:52:34 11:55:04 14° 294° (WNW) 11:57:19 437.445
AIST 1 26 Apr 11:53:53 11:58:10 83° 83° (E) 12:02:27
BUGSAT 1 26 Apr 12:01:47 12:05:13 26° 264° (W) 12:08:35 437.445
TISAT 1 26 Apr 12:06:48 12:09:11 15° 92° (E) 12:11:47 437.305
DUCHIFAT 1 26 Apr 12:12:46 12:15:17 15° 268° (W) 12:17:38 145.980
POLYITAN 1 26 Apr 12:12:53 12:15:21 15° 269° (W) 12:17:36 437.675
ESTCUBE 1 26 Apr 12:18:44 12:23:11 63° 284° (WNW) 12:27:36 437.505/2401.250
Oscar 19 26 Apr 12:24:58 12:28:45 22° 67° (ENE) 12:32:43 437.125/150
YUBILEINY 26 Apr 12:25:10 12:32:45 30° 290° (WNW) 12:40:06 435.215
UKube-1 26 Apr 12:28:21 12:30:33 13° 293° (WNW) 12:32:33 .
Cosmos 2504 26 Apr 12:30:52 12:38:21 33° 87° (E) 12:46:01 435.465 / 435.565
ISS 26 Apr 12:36:56 12:39:28 20° 331° (NNW) 12:42:00 145.825
HUMSAT D 26 Apr 12:38:56 12:40:31 12° 294° (WNW) 12:41:51 437.325/437.525
SPROUT 26 Apr 12:39:10 12:43:22 48° 99° (E) 12:47:35 437.525
AIST 2 26 Apr 12:44:11 12:48:25 88° 241° (WSW) 12:52:34 435.215
VELOX 1 26 Apr 12:56:52 12:59:17 14° 293° (WNW) 13:01:29 145.980
CUBEBUG 1 26 Apr 12:58:35 13:02:12 25° 289° (WNW) 13:05:44 437.445
ITAMSAT 1 26 Apr 13:02:44 13:05:30 15° 65° (ENE) 13:08:31 435.822/435.867
RS-15 26 Apr 13:02:54 13:11:55 33° 107° (ESE) 13:21:21 29.354- 29.394
BEESAT 26 Apr 13:07:37 13:08:32 11° 89° (E) 13:09:47 436.000
SWISSCUBE 26 Apr 13:09:21 13:11:18 13° 90° (E) 13:13:32 437.505
BEESAT 2 26 Apr 13:19:33 13:20:16 10° 251° (WSW) 13:20:45 435.950
SO-50 26 Apr 13:20:41 13:21:36 10° 322° (NW) 13:22:18 436.795
Gurwin Techsat 1B 26 Apr 13:35:59 13:40:21 28° 69° (ENE) 13:44:52 435.225
TISAT 1 26 Apr 13:41:12 13:45:11 39° 287° (WNW) 13:49:08 437.305
Oscar 19 26 Apr 14:03:01 14:07:52 41° 262° (W) 14:12:44 437.125/150
ITUPSAT 1 26 Apr 14:11:58 14:16:41 57° 101° (E) 14:21:21 437.325
SPROUT 26 Apr 14:16:53 14:19:05 13° 293° (WNW) 14:21:06 437.525
Cosmos 2504 26 Apr 14:22:55 14:31:30 51° 283° (WNW) 14:39:58 435.465 / 435.565
KKS-1 26 Apr 14:23:58 14:25:41 12° 90° (E) 14:27:40 437.445
JAS-2 26 Apr 14:34:53 14:40:33 23° 64° (ENE) 14:46:21 435.910
ITAMSAT 1 26 Apr 14:39:27 14:44:34 61° 259° (WSW) 14:49:42 435.822/435.867
BEESAT 26 Apr 14:42:11 14:46:56 66° 285° (WNW) 14:51:38 436.000
SWISSCUBE 26 Apr 14:44:56 14:49:37 56° 286° (WNW) 14:54:14 437.505
GONETS M04 26 Apr 14:54:24 14:58:44 16° 80° (E) 15:03:43
AO-7 26 Apr 14:58:50 15:06:17 40° 64° (ENE) 15:13:52 29.400- 29.500
RS-15 26 Apr 15:12:55 15:23:41 62° 306° (NW) 15:34:41 29.354- 29.394
STARS 26 Apr 15:14:28 15:18:20 29° 96° (E) 15:22:14 437.465
Gurwin Techsat 1B 26 Apr 15:15:29 15:20:15 33° 264° (W) 15:24:59 435.225
VERMONT LUNAR 26 Apr 15:27:55 15:30:53 29° 150° (SSE) 15:33:53 437.305
HORYU 2 26 Apr 15:38:48 15:43:17 87° 259° (W) 15:47:49 437.375
ITUPSAT 1 26 Apr 15:51:36 15:54:08 14° 294° (WNW) 15:56:27 437.325
KKS-1 26 Apr 15:58:19 16:02:42 53° 286° (WNW) 16:07:04 437.445
PHONESAT 2.4 26 Apr 16:06:34 16:09:19 21° 147° (SSE) 16:12:09 2401.200-2431.200
JAS-2 26 Apr 16:17:08 16:25:00 72° 259° (WSW) 16:32:40 435.910
MOZHAYETS 4 26 Apr 16:33:10 16:36:38 22° 93° (E) 16:40:13
PCSat 26 Apr 16:43:27 16:48:06 29° 53° (NE) 16:52:49 145.827
GONETS M04 26 Apr 16:45:45 16:54:32 89° 276° (W) 17:03:25
DANDE 26 Apr 16:47:33 16:50:10 22° 87° (E) 16:53:27 436.750
STARS 26 Apr 16:51:08 16:54:39 23° 291° (WNW) 16:58:05 437.465
AO-7 26 Apr 16:51:17 16:59:03 42° 261° (W) 17:06:45 29.400- 29.500
Cosmos 2499 26 Apr 16:52:21 16:56:55 16° 81° (E) 17:02:03 435.465 / 435.565
VERMONT LUNAR 26 Apr 17:04:52 17:08:13 64° 344° (NNW) 17:11:36 437.305
ISS 26 Apr 17:29:30 17:32:03 21° 29° (NNE) 17:34:38 145.825
RS-15 26 Apr 17:31:26 17:39:08 20° 335° (NNW) 17:46:39 29.354- 29.394
CUTE-I 26 Apr 17:37:15 17:42:04 37° 70° (ENE) 17:46:56 437.470
CUSAT 1 26 Apr 17:42:44 17:46:07 41° 286° (WNW) 17:50:33 437.405
PHONESAT 2.4 26 Apr 17:43:44 17:47:19 84° 344° (NNW) 17:50:55 2401.200-2431.200
Cubesat XI-IV 26 Apr 17:46:57 17:52:00 46° 72° (ENE) 17:57:06 437.490
JAS-2 26 Apr 18:08:39 18:11:17 11° 276° (W) 18:13:09 435.910
MOZHAYETS 4 26 Apr 18:09:52 18:13:56 31° 289° (WNW) 18:17:54
CUBESAT XI-V 26 Apr 18:12:52 18:16:06 19° 93° (E) 18:19:29 437.345
PRISM 26 Apr 18:19:01 18:19:30 10° 90° (E) 18:20:15 437.425
PCSat 26 Apr 18:26:38 18:31:35 36° 250° (WSW) 18:36:26 145.827
DANDE 26 Apr 18:31:21 18:33:36 15° 296° (WNW) 18:36:03 436.750
Cosmos 2499 26 Apr 18:40:16 18:49:10 89° 98° (E) 18:57:53 435.465 / 435.565
VERMONT LUNAR 26 Apr 18:42:44 18:45:58 40° 1° (N) 18:49:11 437.305
M-CUBED/EXP-1 PRIME 26 Apr 18:43:35 18:47:20 34° 101° (E) 18:50:48 437.505
STRAND 1 26 Apr 18:46:18 18:50:00 21° 93° (E) 18:53:52 437.568
GONETS M04 26 Apr 18:47:26 18:52:52 17° 298° (WNW) 18:57:47
BRITE-PL 26 Apr 18:58:20 18:58:49 10° 65° (ENE) 18:59:34 437.365/2234.400
ISS 26 Apr 19:05:27 19:08:31 39° 226° (SW) 19:11:33 145.825
CUTE-I 26 Apr 19:17:55 19:22:16 24° 266° (W) 19:26:29 437.470
HO-68 26 Apr 19:19:27 19:24:49 24° 62° (ENE) 19:30:24 435.675
PHONESAT 2.4 26 Apr 19:22:20 19:25:47 42° 357° (N) 19:29:14 2401.200-2431.200
AUBIESAT-1 26 Apr 19:24:39 19:28:44 78° 288° (WNW) 19:32:26 437.475
Cubesat XI-IV 26 Apr 19:28:32 19:32:23 19° 268° (W) 19:36:03 437.490
CUBESAT XI-V 26 Apr 19:49:28 19:53:40 35° 288° (WNW) 19:57:51 437.345
PRISM 26 Apr 19:51:21 19:55:21 51° 286° (WNW) 19:59:19 437.425
RS-15 26 Apr 19:52:02 19:57:48 15° 11° (N) 20:03:55 29.354- 29.394
COMPASS 1 26 Apr 20:04:15 20:07:08 19° 69° (ENE) 20:10:10 437.405
SO-50 26 Apr 20:09:17 20:14:08 52° 56° (NE) 20:18:55 436.795
GOMX 1 26 Apr 20:13:54 20:17:56 49° 74° (ENE) 20:22:11 467.674
M-CUBED/EXP-1 PRIME 26 Apr 20:19:16 20:21:54 16° 298° (WNW) 20:24:17 437.505
VERMONT LUNAR 26 Apr 20:20:17 20:23:41 76° 17° (NNE) 20:27:03 437.305
STRAND 1 26 Apr 20:24:38 20:29:24 40° 289° (WNW) 20:34:07 437.568
Oscar 11 26 Apr 20:28:01 20:30:13 14° 68° (ENE) 20:32:38 145.826/435.025
SEEDS 26 Apr 20:30:23 20:34:27 46° 74° (ENE) 20:38:35 437.485
BRITE-PL 26 Apr 20:32:49 20:36:53 57° 260° (W) 20:41:05 437.365/2234.400
Cosmos 2499 26 Apr 20:37:48 20:43:36 18° 296° (WNW) 20:48:47 435.465 / 435.565
CANX-2 26 Apr 20:40:41 20:44:59 85° 77° (ENE) 20:49:19 2200.000
YUBILEINY 26 Apr 20:41:13 20:47:37 23° 67° (ENE) 20:54:22 435.215
DOVE 4 26 Apr 20:44:13 20:48:25 73° 76° (ENE) 20:52:52 437.250
AAUSAT CUBESAT 2 26 Apr 20:44:32 20:48:34 46° 74° (ENE) 20:52:38 437.432
CUTE 1.7 + AOD 2 26 Apr 20:49:38 20:53:55 83° 258° (WSW) 20:58:16 437.475
PHONESAT 2.4 26 Apr 21:00:45 21:04:19 62° 14° (NNE) 21:07:53 2401.200-2431.200
DX 1 26 Apr 21:04:30 21:06:02 12° 66° (ENE) 21:07:48 434.975-435.025
HO-68 26 Apr 21:04:58 21:12:04 62° 258° (WSW) 21:19:12 435.675
CUBEBUG 2 26 Apr 21:10:11 21:14:08 35° 72° (ENE) 21:18:15 437.445
CINEMA 3 26 Apr 21:19:05 21:23:24 89° 78° (ENE) 21:27:57 145.822/145.860
UWE-3 26 Apr 21:33:20 21:37:32 52° 75° (ENE) 21:41:56 435.000/436.395/437.385
O/OREOS (USA 219) 26 Apr 21:34:07 21:38:22 39° 105° (ESE) 21:42:38 437.305
COMPASS 1 26 Apr 21:38:48 21:42:37 32° 263° (W) 21:46:26 437.405
FUNcube-1 26 Apr 21:39:31 21:43:40 47° 74° (ENE) 21:47:57 145.935
UKube-1 26 Apr 21:43:19 21:47:04 31° 71° (ENE) 21:50:54 .
DELFI C3 26 Apr 21:46:50 21:50:55 86° 79° (E) 21:55:01 145.870
HUMSAT D 26 Apr 21:50:37 21:54:16 29° 72° (ENE) 21:58:01 437.325/437.525
SO-50 26 Apr 21:51:05 21:54:19 17° 250° (WSW) 21:57:18 436.795
GOMX 1 26 Apr 21:55:13 21:56:34 11° 272° (W) 21:57:40 467.674
VERMONT LUNAR 26 Apr 21:58:11 22:00:57 23° 212° (SSW) 22:03:39 437.305
Oscar 11 26 Apr 22:01:51 22:06:03 46° 261° (W) 22:10:16 145.826/435.025
RS-15 26 Apr 22:04:44 22:15:03 37° 43° (NE) 22:25:59 29.354- 29.394
ZACube-1 26 Apr 22:05:15 22:09:35 84° 258° (WSW) 22:14:03 437.345
TIGRISAT 26 Apr 22:05:29 22:06:40 11° 88° (E) 22:08:11 435.000
SEEDS 26 Apr 22:08:33 22:10:34 13° 270° (W) 22:12:22 437.485
UNISAT 6 26 Apr 22:09:35 22:11:40 13° 89° (E) 22:14:00 437.425
VELOX 1 26 Apr 22:14:17 22:18:10 32° 71° (ENE) 22:22:07 145.980
CUBEBUG 1 26 Apr 22:17:14 22:19:47 16° 68° (ENE) 22:22:32 437.445
AAUSAT CUBESAT 2 26 Apr 22:22:36 22:24:30 12° 270° (W) 22:26:10 437.432
Cosmos 2491 26 Apr 22:22:57 22:31:22 58° 92° (E) 22:39:55 435.465 / 435.565
50 SAT 26 Apr 22:27:43 22:31:33 47° 74° (ENE) 22:35:28 437.505
AISAT 26 Apr 22:32:16 22:36:33 54° 74° (ENE) 22:40:51 437.250
YUBILEINY 26 Apr 22:36:39 22:45:21 69° 267° (W) 22:53:54 435.215
DX 1 26 Apr 22:37:37 22:41:52 55° 259° (W) 22:46:07 434.975-435.025
PHONESAT 2.4 26 Apr 22:39:11 22:42:28 34° 209° (SSW) 22:45:44 2401.200-2431.200
QB50P1 26 Apr 22:42:30 22:44:22 13° 91° (E) 22:46:28 145.935-145.965
CUBEBUG 2 26 Apr 22:47:55 22:51:00 18° 269° (W) 22:54:00 437.445
ANTELSAT 26 Apr 22:49:54 22:54:16 37° 97° (E) 22:58:34 437.575/2403.000
QB50P2 26 Apr 23:07:39 23:11:16 27° 95° (E) 23:14:58 145.880/145.840
UWE-3 26 Apr 23:12:42 23:14:31 12° 271° (W) 23:16:05 435.000/436.395/437.385
O/OREOS (USA 219) 26 Apr 23:14:41 23:17:59 19° 302° (WNW) 23:21:08 437.305
ESTCUBE 1 26 Apr 23:15:40 23:20:11 87° 77° (ENE) 23:24:42 437.505/2401.250
FUNcube-1 26 Apr 23:18:11 23:20:22 13° 271° (W) 23:22:19 145.935
UKube-1 26 Apr 23:20:04 23:23:17 20° 266° (W) 23:26:23 .
NANOSAT C BR1 26 Apr 23:24:30 23:28:33 40° 98° (E) 23:32:37 145.865
HUMSAT D 26 Apr 23:26:54 23:30:05 20° 267° (W) 23:33:10 437.325/437.525
POPSAT HIP 1 26 Apr 23:28:16 23:32:24 45° 99° (E) 23:36:33 437.405
SPROUT 26 Apr 23:31:21 23:34:57 27° 71° (ENE) 23:38:37 437.525
TIGRISAT 26 Apr 23:39:16 23:43:56 63° 285° (WNW) 23:48:30 435.000
UNISAT 6 26 Apr 23:44:16 23:48:52 53° 286° (WNW) 23:53:22 437.425
BUGSAT 1 26 Apr 23:45:34 23:49:37 49° 99° (E) 23:53:42 437.445
VELOX 1 26 Apr 23:51:35 23:54:49 19° 266° (W) 23:57:56 145.980
CUBEBUG 1 26 Apr 23:51:49 23:55:53 39° 262° (W) 23:59:56 437.445
DUCHIFAT 1 26 Apr 23:57:50 00:02:08 80° 284° (WNW) 00:06:25 145.980
POLYITAN 1 26 Apr 23:58:33 00:02:53 75° 283° (WNW) 00:07:11 437.675
50 SAT 27 Apr 00:05:36 00:06:43 11° 271° (W) 00:07:34 437.505
AISAT 27 Apr 00:12:00 00:13:33 11° 270° (W) 00:14:49 437.250
BEESAT 27 Apr 00:12:44 00:13:31 11° 64° (ENE) 00:14:38 436.000
SWISSCUBE 27 Apr 00:14:26 00:16:14 12° 65° (ENE) 00:18:17 437.505
QB50P1 27 Apr 00:16:25 00:20:33 46° 286° (WNW) 00:24:39 145.935-145.965
RS-15 27 Apr 00:16:52 00:28:24 68° 245° (WSW) 00:40:20 29.354- 29.394
Cosmos 2504 27 Apr 00:19:16 00:27:01 54° 78° (ENE) 00:34:15 435.465 / 435.565
AIST 1 27 Apr 00:20:39 00:24:51 55° 94° (E) 00:29:03
Cosmos 2491 27 Apr 00:21:31 00:28:49 28° 291° (WNW) 00:35:55 435.465 / 435.565
ANTELSAT 27 Apr 00:27:22 00:30:47 20° 292° (WNW) 00:34:03 437.575/2403.000
TISAT 1 27 Apr 00:30:33 00:34:43 74° 258° (WSW) 00:38:55 437.305
QB50P2 27 Apr 00:43:38 00:47:04 23° 290° (WNW) 00:50:24 145.880/145.840
NANOSAT C BR1 27 Apr 01:01:29 01:04:06 16° 292° (WNW) 01:06:33 145.865
POPSAT HIP 1 27 Apr 01:05:34 01:07:56 14° 293° (WNW) 01:10:07 437.405
SPROUT 27 Apr 01:07:42 01:11:02 21° 266° (W) 01:14:18 437.525
ITUPSAT 1 27 Apr 01:16:21 01:20:57 50° 73° (ENE) 01:25:36 437.325
BUGSAT 1 27 Apr 01:22:52 01:24:43 12° 293° (WNW) 01:26:24 437.445
JUGNU 27 Apr 01:27:14 01:30:20 14° 175° (S) 01:33:26 437.505
BEESAT 3 27 Apr 01:27:35 01:30:41 22° 112° (ESE) 01:33:56 437.485
BEESAT 2 27 Apr 01:31:04 01:34:01 20° 112° (ESE) 01:37:06 435.950
SRMSAT 27 Apr 01:42:27 01:42:42 10° 167° (SSE) 01:43:03 437.500
BEESAT 27 Apr 01:46:02 01:50:49 77° 258° (WSW) 01:55:37 436.000
SWISSCUBE 27 Apr 01:48:51 01:53:36 66° 259° (W) 01:58:22 437.505
Gurwin Techsat 1B 27 Apr 01:56:08 01:58:13 13° 89° (E) 02:00:40 435.225
AIST 1 27 Apr 02:02:07 02:02:58 10° 291° (WNW) 02:03:32
STARS 27 Apr 02:09:46 02:12:52 20° 69° (ENE) 02:16:06 437.465
Cosmos 2504 27 Apr 02:13:43 02:19:54 25° 276° (W) 02:25:31 435.465 / 435.565
Oscar 19 27 Apr 02:16:39 02:21:53 86° 100° (E) 02:27:05 437.125/150
RS-15 27 Apr 02:34:46 02:39:20 12° 260° (W) 02:42:35 29.354- 29.394
CUSAT 1 27 Apr 02:38:39 02:43:59 20° 66° (ENE) 02:49:58 437.405
AIST 2 27 Apr 02:39:53 02:43:44 35° 114° (ESE) 02:47:41 435.215
KKS-1 27 Apr 02:53:45 02:58:11 80° 258° (WSW) 03:02:39 437.445
ITAMSAT 1 27 Apr 02:54:43 02:59:49 58° 100° (E) 03:04:56 435.822/435.867
ITUPSAT 1 27 Apr 02:56:22 02:59:11 15° 269° (W) 03:01:46 437.325
GONETS M04 27 Apr 02:59:30 03:07:40 41° 74° (ENE) 03:15:53
BEESAT 3 27 Apr 03:04:58 03:08:34 29° 307° (NW) 03:12:11 437.485
AO-7 27 Apr 03:06:09 03:08:50 12° 87° (E) 03:12:17 29.400- 29.500
BEESAT 2 27 Apr 03:08:13 03:11:56 32° 306° (NW) 03:15:41 435.950
JUGNU 27 Apr 03:15:30 03:18:35 14° 185° (S) 03:21:37 437.505
DANDE 27 Apr 03:26:52 03:33:48 36° 73° (ENE) 03:41:35 436.750
SRMSAT 27 Apr 03:27:54 03:31:05 15° 177° (S) 03:34:17 437.500
JAS-2 27 Apr 03:33:00 03:36:28 16° 87° (E) 03:40:01 435.910
HORYU 2 27 Apr 03:33:22 03:36:47 22° 94° (E) 03:40:17 437.375
MOZHAYETS 4 27 Apr 03:33:30 03:36:21 17° 68° (ENE) 03:39:22
Gurwin Techsat 1B 27 Apr 03:33:30 03:38:48 68° 285° (WNW) 03:44:03 435.225
STARS 27 Apr 03:45:09 03:49:07 33° 263° (W) 03:53:05 437.465
Oscar 19 27 Apr 03:59:13 04:00:36 11° 297° (WNW) 04:01:39 437.125/150
AIST 2 27 Apr 04:19:08 04:22:27 21° 311° (NW) 04:25:42 435.215
CUSAT 1 27 Apr 04:19:37 04:27:32 84° 263° (W) 04:35:53 437.405
ITAMSAT 1 27 Apr 04:35:46 04:38:54 16° 295° (WNW) 04:41:50 435.822/435.867
Cosmos 2499 27 Apr 04:36:36 04:42:39 26° 69° (ENE) 04:48:36 435.465 / 435.565
AUBIESAT-1 27 Apr 04:39:09 04:39:31 10° 59° (ENE) 04:40:11 437.475
AO-7 27 Apr 04:54:43 05:03:05 78° 106° (ESE) 05:11:26 29.400- 29.500
GONETS M04 27 Apr 04:56:25 05:04:30 40° 272° (W) 05:12:23
MOZHAYETS 4 27 Apr 05:08:50 05:13:17 44° 262° (W) 05:17:42
HORYU 2 27 Apr 05:09:31 05:13:28 30° 289° (WNW) 05:17:21 437.375
DANDE 27 Apr 05:09:45 05:17:13 49° 267° (W) 05:25:19 436.750
CUBESAT XI-V 27 Apr 05:14:53 05:17:26 15° 67° (ENE) 05:20:10 437.345
JAS-2 27 Apr 05:16:13 05:22:20 59° 288° (WNW) 05:27:44 435.910
SRMSAT 27 Apr 05:16:39 05:19:29 14° 187° (S) 05:22:15 437.500
